Wetbulb
67.67 65.08 58.51 58.50 50.36 47.45 44.67 47.81 50.93 52.00 50.24 49.05 49.66 48.36 47.47 48.71 50.09 44.36 56.08 62.72 60.99 61.60 65.97 71.96 73.97 73.44 72.71 72.43 72.11 71.52 71.08 70.35 69.40 68.65 68.23 67.99 67.82 67.64 67.05 66.76 66.22 65.67 65.62 65.92 66.24 66.13 65.78 65.56 67.36
64.10 62.13 58.49 56.05 47.58 41.90 43.70 49.67 50.50 52.68 52.61 48.67 48.52 48.52 47.86 48.21 54.63 56.29 60.60 64.42 61.57 62.46 66.06 70.89 74.02 73.65 73.19 72.82 72.42 71.95 71.23 70.65 70.05 69.54 68.93 68.72 68.51 68.17 68.11 67.96 67.56 67.56 67.31 67.23 67.21 67.19 67.09 66.69 66.29
62.33 60.50 55.28 50.84 46.59 42.84 43.51 49.76 51.38 53.99 54.73 49.68 47.88 51.36 50.52 50.32 55.99 57.56 61.21 64.49 63.21 62.91 66.64 70.02 73.99 73.65 73.44 73.24 72.85 72.68 71.93 71.56 70.48 70.12 69.89 70.00 69.88 69.51 69.10 68.59 68.15 68.26 68.01 68.18 68.02 68.01 67.97 67.76 67.06
58.65 57.83 55.38 48.16 45.07 48.21 48.94 51.82 51.52 51.81 53.26 50.02 50.32 49.58 52.44 55.47 56.70 58.80 61.43 64.11 63.45 64.08 67.00 70.36 73.84 73.69 73.52 73.50 73.37 73.30 72.41 71.89 71.33 70.65 71.03 70.59 70.11 69.64 69.50 69.07 68.58 68.46 68.19 68.37 68.16 68.47 68.64 68.14 68.20
57.53 53.93 47.41 44.65 45.97 48.67 50.62 52.63 51.09 50.98 50.72 49.23 50.35 49.48 50.18 54.80 58.59 59.80 63.78 63.88 62.69 62.71 65.17 69.24 73.54 73.84 73.94 73.64 73.60 73.49 73.02 72.55 72.28 71.51 71.16 70.64 70.23 69.89 69.40 69.05 69.11 68.23 68.45 68.33 68.02 68.25 68.58 68.89 68.45
52.33 49.93 42.58 41.96 45.56 48.85 51.04 52.36 51.15 50.18 50.67 49.03 48.91 49.54 50.45 54.74 57.02 61.30 63.79 62.28 62.25 63.33 65.58 67.94 73.05 73.71 73.81 73.94 73.72 73.24 73.01 72.81 72.66 72.32 71.71 71.12 70.28 69.88 69.01 68.71 68.42 68.22 68.05 68.07 68.13 68.35 69.08 69.12 68.77
50.06 46.22 42.90 43.98 46.85 47.94 50.58 51.83 50.12 49.16 49.75 50.04 50.64 48.69 50.46 53.36 56.45 61.59 63.06 62.17 62.70 63.86 65.12 67.05 70.11 72.65 73.74 73.73 73.24 73.06 73.07 73.06 72.57 71.76 71.04 70.17 68.85 68.29 67.86 67.63 67.62 67.34 67.37 67.41 67.65 67.87 68.22 68.57 68.04
51.66 47.92 44.25 46.50 46.16 46.54 51.41 50.18 49.72 50.11 51.31 53.74 54.28 49.06 48.95 52.61 55.86 57.68 59.21 59.89 61.35 63.18 64.43 65.50 67.79 69.88 69.03 70.26 73.48 73.13 72.48 71.84 70.96 69.72 68.87 68.23 67.27 66.75 66.51 66.95 66.35 66.51 66.63 66.89 67.31 67.35 67.25 67.90 67.87
52.45 44.68 42.01 45.60 46.59 47.72 49.10 48.38 51.80 53.53 51.84 51.72 54.03 52.81 54.50 55.55 54.22 55.46 55.12 55.51 56.18 59.27 61.09 62.22 63.77 65.37 65.24 65.40 67.02 70.75 69.75 69.13 69.03 68.33 68.13 67.33 63.44 63.02 64.62 65.14 65.67 65.20 65.65 66.06 66.15 66.46 66.80 67.75 66.93
50.20 44.02 45.20 50.17 49.78 49.15 49.55 49.81 51.21 51.81 52.12 53.04 52.36 54.24 55.69 54.67 53.44 53.90 53.82 55.73 54.03 56.14 56.58 59.51 60.94 61.60 61.70 62.44 61.58 62.04 63.53 63.81 63.70 64.01 63.26 63.61 62.67 61.74 62.50 63.51 64.58 64.65 65.44 65.79 65.88 66.35 66.81 66.54 64.86
49.63 47.02 51.26 50.74 52.62 51.83 51.27 52.34 53.38 50.85 49.65 52.50 51.37 54.68 53.36 53.34 52.29 53.04 54.54 55.87 56.49 57.11 55.87 56.52 58.59 59.28 58.96 59.34 58.87 59.12 60.19 61.00 61.56 62.10 62.45 61.87 61.35 61.06 62.29 61.38 60.91 61.03 62.74 61.76 62.06 61.83 62.80 63.33 63.64
46.40 51.05 52.93 52.16 53.10 51.18 51.63 53.43 53.26 53.68 53.67 56.48 56.64 55.11 53.42 52.58 52.56 52.78 53.46 54.65 51.71 51.90 54.22 55.53 57.54 58.01 58.06 58.93 58.69 58.31 58.52 58.39 58.36 59.74 61.22 60.10 58.79 58.39 58.31 58.79 59.00 59.21 59.59 59.58 59.94 60.51 61.51 62.35 63.06
48.30 50.60 52.15 53.10 52.38 52.19 54.56 52.53 52.99 53.20 56.96 57.64 56.26 53.43 53.69 53.15 53.83 54.39 54.78 54.05 50.71 51.53 53.80 55.64 57.40 57.90 58.07 58.51 58.65 57.97 57.33 59.00 58.99 59.35 60.01 59.19 58.37 58.12 58.50 58.54 58.65 58.83 59.09 58.95 59.10 59.67 60.47 61.48 62.22
48.69 50.53 50.80 50.38 51.50 52.99 51.90 51.76 51.36 53.68 56.77 54.63 54.02 52.67 53.33 53.34 53.57 53.61 51.96 51.98 51.00 52.67 54.80 56.77 57.69 57.91 58.36 58.31 57.94 57.59 57.45 58.54 59.26 59.35 59.49 59.89 59.02 58.69 58.58 58.55 58.71 58.46 58.73 59.34 58.82 58.91 59.85 60.57 61.49
45.27 41.72 44.88 46.25 47.86 47.66 51.06 47.10 47.97 53.59 53.97 52.57 52.58 52.36 52.83 53.71 53.49 53.01 54.15 53.99 51.81 53.74 56.06 57.29 57.56 58.31 58.37 58.13 57.75 57.75 58.18 59.40 59.10 59.53 60.16 60.36 60.02 59.26 59.42 58.83 58.79 59.16 59.07 59.48 58.90 58.97 59.75 59.78 60.16
41.79 40.66 37.79 43.96 47.54 47.59 48.31 41.38 48.35 52.33 50.92 51.22 51.64 51.90 51.30 52.54 53.45 54.63 54.27 51.82 53.48 55.46 56.61 57.24 59.71 58.05 57.66 57.16 57.92 58.51 59.28 59.50 59.71 59.95 60.38 61.10 60.87 60.43 59.39 58.75 58.87 59.22 59.25 59.12 58.48 58.34 58.61 58.94 59.41
37.95 35.92 36.85 39.94 46.09 45.42 45.37 42.45 48.40 50.44 50.17 50.08 51.45 51.25 51.02 51.77 51.98 53.85 52.59 52.43 54.72 56.37 56.34 56.31 57.67 57.21 57.28 57.66 57.91 58.86 59.59 59.55 60.19 60.35 60.65 61.12 61.78 62.10 59.53 58.93 59.12 59.40 59.11 58.71 58.32 57.80 58.92 58.35 58.85
34.92 35.04 38.12 38.54 43.59 42.52 42.08 42.35 46.70 49.37 49.23 49.46 50.02 50.95 50.98 50.60 51.50 52.03 52.38 53.28 55.81 56.47 56.54 56.64 57.30 57.59 57.79 57.97 58.82 58.84 58.84 59.57 60.13 60.45 60.38 61.10 60.95 61.53 60.31 59.37 58.98 59.24 58.47 57.64 57.79 58.10 58.70 59.12 59.36
41.04 38.57 37.62 42.64 45.44 42.71 41.50 42.53 46.12 48.34 47.59 47.71 48.32 49.00 49.61 49.26 50.90 51.33 52.47 54.27 55.79 56.15 56.35 56.16 57.10 57.35 57.86 58.12 58.00 58.06 57.82 58.06 59.30 59.54 60.09 60.61 60.81 61.02 59.64 59.37 58.92 58.57 57.70 57.22 57.74 58.20 58.34 58.89 59.64
41.02 38.86 38.83 43.29 45.04 42.94 42.53 42.29 45.97 47.28 47.38 48.34 49.48 50.05 49.72 48.79 51.45 51.80 51.56 54.12 55.29 55.68 55.95 56.31 57.27 56.83 58.63 58.10 58.38 58.84 58.18 58.71 59.27 59.46 60.11 59.93 60.63 60.90 59.85 58.94 58.97 58.39 57.16 57.14 57.58 58.59 57.94 58.41 59.80
41.39 39.82 40.39 40.41 42.87 43.57 41.99 39.98 43.31 47.32 47.76 49.01 50.39 50.84 50.38 50.01 50.53 50.26 51.71 52.98 54.87 55.07 55.43 56.61 57.16 57.96 59.04 58.49 58.30 57.42 57.12 57.52 57.46 58.02 58.78 59.15 60.16 60.99 60.50 60.00 59.24 58.25 57.22 56.66 57.28 58.37 58.72 57.68 59.31
38.01 44.73 44.25 42.40 38.45 32.77 41.26 31.44 40.77 44.59 45.85 47.65 48.63 47.90 49.28 49.67 51.24 50.73 51.08 52.05 54.17 54.83 55.94 56.69 57.49 58.84 59.08 58.72 57.68 56.27 55.74 55.56 56.44 57.26 58.41 58.74 60.32 60.94 60.98 60.57 59.49 58.36 57.64 56.62 57.60 58.73 58.84 59.03 57.64
40.74 45.64 44.13 42.04 37.02 33.93 36.74 33.92 38.45 42.34 43.53 45.86 48.03 48.60 47.91 49.20 50.60 50.37 51.36 53.07 53.42 55.02 55.77 57.16 58.29 58.68 58.33 58.48 58.13 56.90 56.12 56.40 57.26 57.44 57.84 58.82 59.49 60.92 61.28 61.11 59.34 58.72 57.74 57.50 58.13 58.22 58.65 59.15 58.64
45.49 42.30 40.14 38.49 35.53 29.01 36.65 36.08 35.73 39.88 43.67 46.14 47.58 48.78 49.08 50.03 50.41 51.04 52.08 52.67 52.98 54.73 56.33 57.11 57.76 57.77 58.37 57.93 57.77 56.63 56.16 56.32 56.40 57.20 57.82 57.81 58.47 59.75 60.86 61.44 60.85 59.36 58.18 57.58 58.50 58.81 58.75 59.68 59.80
41.68 35.70 27.34 25.83 26.67 27.55 38.42 35.69 38.93 43.51 46.10 47.84 48.17 47.86 48.80 50.74 50.26 50.93 51.72 52.01 52.24 54.83 56.24 56.65 56.91 56.87 57.76 57.87 57.46 57.07 56.87 56.43 57.42 57.78 57.84 58.73 59.05 59.41 59.62 60.58 59.68 58.74 58.48 58.25 58.95 58.80 59.05 60.11 60.38
38.57 36.65 29.84 24.69 25.95 31.58 38.57 33.79 38.63 46.37 49.58 49.35 48.90 48.68 49.24 49.84 50.36 51.54 52.00 52.04 53.17 55.50 56.16 56.60 56.33 56.36 57.15 57.56 57.56 57.65 57.72 57.50 57.90 57.94 58.35 58.59 59.03 59.27 59.93 60.37 59.79 59.28 59.10 58.93 58.95 59.20 59.58 59.51 59.66
37.13 35.14 38.31 33.08 34.97 30.82 34.47 38.14 43.74 46.45 46.88 47.91 48.06 48.86 48.45 49.48 50.15 50.85 51.96 52.22 53.17 55.52 55.84 55.93 55.71 56.18 57.32 57.81 57.69 57.74 58.21 57.47 57.27 58.28 58.82 59.03 59.30 60.65 60.02 60.84 60.36 60.10 59.54 59.14 59.13 59.57 59.40 59.78 59.18
40.24 41.71 32.81 32.13 27.24 25.84 32.19 34.75 37.67 42.93 45.92 47.94 47.68 47.64 48.10 49.34 50.45 51.35 52.25 52.07 53.59 55.50 55.58 55.64 55.78 56.01 57.70 58.05 58.04 58.59 58.78 58.89 58.18 58.71 58.70 59.00 59.46 59.64 59.73 59.98 60.49 60.17 59.69 59.38 59.53 59.05 59.12 59.09 58.57
35.20 36.30 34.15 35.26 32.01 27.84 27.30 33.32 41.98 44.50 45.96 47.23 47.60 48.21 48.32 49.47 50.89 51.97 52.39 52.69 53.30 53.79 54.75 55.58 55.32 56.01 57.00 57.97 58.21 58.92 59.20 59.59 59.10 59.37 59.35 59.30 59.70 59.99 59.58 59.95 59.80 59.53 58.89 59.31 59.73 59.96 60.15 58.99 58.58
41.52 36.29 35.61 34.09 29.11 32.60 32.70 33.90 44.24 45.81 46.51 48.05 48.20 48.80 48.71 49.77 51.24 52.19 52.35 51.07 52.07 52.76 53.31 54.95 55.30 55.84 56.84 57.17 58.49 58.65 58.86 58.75 57.97 59.33 59.63 59.92 59.82 60.33 59.97 59.86 59.69 59.60 59.23 59.89 59.76 59.57 60.05 59.14 58.55
MSLP
1012.80 1012.93 1013.03 1013.50 1014.72 1015.05 1014.24 1012.64 1011.22 1010.19 1009.31 1008.59 1008.59 1008.97 1009.28 1009.31 1010.17 1010.20 1008.29 1008.53 1008.60 1009.17 1009.86 1010.47 1011.09 1011.55 1011.85 1012.10 1012.39 1012.73 1012.98 1013.21 1013.40 1013.53 1013.72 1014.00 1014.14 1014.25 1014.41 1014.43 1014.41 1014.47 1014.51 1014.57 1014.49 1014.54 1014.62 1014.87 1014.91
1012.69 1013.13 1013.00 1013.55 1014.62 1015.00 1013.39 1011.73 1010.56 1009.43 1008.61 1008.22 1008.09 1008.00 1008.35 1008.32 1008.38 1008.35 1008.36 1008.38 1008.41 1008.83 1009.55 1010.13 1010.66 1011.04 1011.48 1011.90 1012.24 1012.53 1012.85 1012.99 1013.25 1013.43 1013.53 1013.73 1013.92 1013.93 1014.15 1014.34 1014.26 1014.36 1014.35 1014.47 1014.39 1014.37 1014.57 1014.90 1014.73
1012.26 1012.30 1013.03 1013.88 1014.46 1014.18 1012.67 1010.76 1009.67 1008.53 1008.15 1007.98 1007.92 1007.77 1007.50 1007.54 1007.55 1007.64 1007.47 1007.84 1008.46 1008.96 1009.33 1009.76 1010.27 1010.75 1011.17 1011.50 1011.88 1012.24 1012.55 1012.74 1012.90 1013.19 1013.45 1013.45 1013.66 1013.79 1013.76 1013.96 1014.05 1014.06 1014.06 1014.16 1014.15 1014.23 1014.41 1014.51 1014.72
1012.09 1012.59 1013.47 1013.88 1013.96 1012.78 1011.62 1009.83 1009.43 1008.80 1007.73 1007.54 1007.33 1007.74 1007.41 1006.57 1006.85 1006.85 1007.10 1007.83 1008.42 1009.01 1009.20 1009.53 1010.04 1010.52 1010.85 1011.35 1011.66 1012.03 1012.23 1012.49 1012.68 1012.90 1013.06 1013.22 1013.37 1013.61 1013.50 1013.59 1013.80 1013.84 1013.81 1013.82 1013.87 1013.85 1014.10 1014.26 1014.49
1012.34 1013.16 1013.76 1013.77 1013.21 1011.83 1010.46 1009.22 1008.88 1008.45 1008.08 1007.42 1007.43 1007.25 1007.23 1006.59 1006.58 1006.80 1007.08 1007.66 1008.24 1008.87 1009.11 1009.43 1009.77 1010.34 1010.69 1010.98 1011.37 1011.72 1011.97 1012.24 1012.36 1012.48 1012.60 1012.83 1013.04 1013.27 1013.10 1013.42 1013.52 1013.49 1013.47 1013.53 1013.58 1013.72 1013.85 1013.95 1013.98
1012.98 1013.64 1014.03 1013.56 1012.44 1011.01 1009.72 1008.64 1008.41 1008.01 1007.53 1007.35 1007.52 1007.49 1007.11 1006.72 1006.97 1006.77 1006.89 1007.41 1007.96 1008.45 1008.96 1009.35 1009.67 1010.00 1010.39 1010.74 1011.25 1011.60 1011.80 1011.97 1012.24 1012.34 1012.36 1012.52 1012.61 1012.85 1012.93 1013.16 1013.17 1013.16 1013.22 1013.21 1013.27 1013.34 1013.45 1013.61 1013.88
1012.92 1013.91 1013.62 1012.88 1011.77 1010.56 1009.14 1008.00 1007.82 1007.54 1007.35 1007.01 1007.12 1007.27 1007.02 1006.70 1006.81 1007.18 1007.25 1007.59 1008.01 1008.50 1008.99 1009.25 1009.55 1009.83 1010.26 1010.59 1010.89 1011.23 1011.45 1011.77 1011.84 1012.09 1012.33 1012.33 1012.39 1012.63 1012.83 1012.97 1012.95 1012.90 1012.95 1012.97 1013.01 1013.04 1013.15 1013.40 1013.66
1012.50 1013.39 1013.27 1012.36 1011.38 1009.71 1008.34 1007.54 1007.32 1007.40 1007.03 1006.82 1006.93 1007.07 1006.82 1006.37 1006.69 1007.55 1007.84 1008.04 1008.33 1008.62 1008.99 1009.35 1009.51 1009.90 1010.03 1010.40 1010.61 1010.92 1011.22 1011.37 1011.60 1011.87 1012.21 1012.24 1012.29 1012.47 1012.64 1012.77 1012.78 1012.78 1012.82 1012.85 1012.87 1012.75 1012.83 1013.21 1013.42
1012.09 1013.03 1012.90 1011.54 1010.85 1009.20 1008.19 1007.77 1007.40 1006.86 1006.94 1006.70 1006.58 1006.58 1006.24 1006.54 1006.88 1007.58 1008.08 1008.41 1008.64 1008.79 1008.89 1009.16 1009.43 1009.76 1010.17 1010.54 1010.73 1010.82 1011.05 1011.18 1011.38 1011.56 1011.90 1012.06 1012.23 1012.42 1012.62 1012.75 1012.67 1012.66 1012.70 1012.65 1012.64 1012.56 1012.55 1012.73 1013.00
1011.99 1012.31 1011.33 1009.71 1009.24 1008.51 1008.12 1007.91 1007.57 1007.17 1006.54 1006.21 1006.53 1006.03 1006.36 1006.88 1007.19 1007.33 1007.72 1007.96 1008.34 1008.57 1008.64 1008.82 1009.28 1009.83 1010.22 1010.52 1010.78 1010.99 1011.07 1011.22 1011.27 1011.42 1011.72 1011.87 1012.07 1012.31 1012.46 1012.59 1012.50 1012.48 1012.35 1012.30 1012.34 1012.29 1012.37 1012.45 1012.66
1011.18 1010.80 1009.54 1009.03 1008.68 1008.67 1008.09 1007.52 1007.65 1007.27 1006.68 1005.89 1006.27 1005.84 1006.30 1006.84 1007.19 1006.93 1007.03 1007.00 1006.68 1007.51 1008.28 1008.67 1009.21 1009.66 1010.05 1010.58 1010.91 1010.91 1011.10 1011.22 1011.23 1011.33 1011.55 1011.75 1011.96 1012.20 1012.38 1012.48 1012.47 1012.43 1012.31 1012.40 1012.44 1012.48 1012.58 1012.59 1012.54
1010.68 1009.96 1009.08 1008.30 1008.38 1008.66 1008.10 1007.62 1007.18 1006.97 1006.07 1005.62 1005.46 1005.53 1005.96 1006.51 1006.76 1006.34 1006.52 1006.44 1006.81 1007.42 1007.83 1008.47 1009.11 1009.65 1009.99 1010.38 1010.58 1010.70 1011.10 1011.19 1011.27 1011.17 1011.30 1011.59 1011.86 1012.08 1012.22 1012.28 1012.33 1012.36 1012.23 1012.32 1012.47 1012.52 1012.44 1012.47 1012.48
1010.20 1009.09 1008.69 1008.57 1008.59 1008.12 1007.55 1007.17 1006.89 1006.27 1005.08 1005.19 1005.09 1005.11 1005.26 1005.37 1005.73 1005.52 1005.23 1005.98 1006.66 1007.23 1007.62 1008.40 1009.11 1009.66 1009.99 1010.34 1010.50 1010.83 1011.02 1011.11 1010.93 1010.91 1011.07 1011.24 1011.50 1011.65 1011.73 1011.85 1012.02 1011.96 1012.00 1012.13 1012.26 1012.31 1012.27 1012.36 1012.47
1009.41 1008.81 1008.55 1008.55 1008.63 1007.71 1007.16 1005.94 1006.58 1005.67 1004.91 1004.89 1004.78 1004.72 1004.62 1004.75 1004.83 1005.15 1005.42 1005.46 1006.11 1006.78 1007.58 1008.27 1008.97 1009.56 1009.83 1010.05 1010.40 1010.68 1010.80 1010.78 1010.76 1010.64 1010.66 1010.75 1010.89 1011.09 1011.33 1011.46 1011.51 1011.54 1011.56 1011.75 1011.86 1011.95 1012.03 1012.16 1012.34
1008.79 1008.89 1008.66 1008.37 1008.02 1007.40 1006.71 1005.47 1005.63 1004.82 1004.65 1004.61 1004.38 1004.16 1004.01 1003.95 1004.51 1004.81 1003.97 1004.33 1005.63 1006.55 1007.50 1008.27 1008.79 1009.24 1009.66 1009.95 1010.36 1010.57 1010.53 1010.52 1010.52 1010.35 1010.38 1010.41 1010.52 1010.64 1010.81 1010.87 1010.90 1010.98 1011.23 1011.42 1011.57 1011.69 1011.84 1012.11 1012.31
1009.02 1008.81 1008.42 1007.30 1007.00 1006.76 1006.80 1004.61 1005.17 1004.22 1004.42 1004.27 1003.93 1003.72 1003.47 1003.26 1003.39 1003.34 1003.90 1004.33 1005.04 1006.09 1007.16 1008.09 1008.62 1009.12 1009.54 1009.93 1010.17 1010.35 1010.23 1010.08 1010.13 1010.01 1009.96 1009.95 1010.01 1010.11 1010.36 1010.43 1010.49 1010.55 1010.84 1011.07 1011.38 1011.58 1011.84 1012.09 1012.29
1009.20 1008.72 1008.12 1007.39 1006.16 1006.53 1006.36 1005.09 1004.41 1004.06 1004.13 1003.91 1003.39 1002.96 1002.92 1002.76 1002.84 1002.71 1003.10 1004.14 1005.18 1005.98 1006.88 1007.87 1008.37 1008.90 1009.28 1009.91 1010.06 1010.20 1010.03 1009.84 1009.77 1009.66 1009.60 1009.54 1009.57 1009.67 1009.86 1009.94 1010.06 1010.21 1010.62 1010.91 1011.22 1011.48 1011.69 1012.07 1012.29
1008.50 1008.42 1007.70 1007.00 1006.09 1006.21 1006.01 1005.36 1004.41 1003.75 1003.76 1003.39 1002.91 1002.53 1002.50 1002.47 1001.82 1002.20 1003.15 1004.03 1004.58 1005.76 1006.49 1007.48 1008.24 1008.80 1009.31 1009.76 1009.98 1009.99 1009.62 1009.58 1009.44 1009.37 1009.25 1009.19 1009.30 1009.36 1009.46 1009.57 1009.78 1010.03 1010.44 1010.83 1011.11 1011.34 1011.68 1011.73 1011.88
1007.09 1007.42 1006.98 1005.73 1005.87 1006.33 1006.34 1005.49 1004.19 1003.50 1003.41 1003.07 1002.47 1002.29 1002.03 1001.87 1001.57 1002.12 1002.71 1003.62 1004.35 1005.61 1006.51 1007.25 1008.28 1008.86 1009.25 1009.66 1009.86 1009.69 1009.57 1009.54 1009.29 1009.17 1008.98 1008.98 1008.91 1009.00 1009.13 1009.24 1009.59 1009.89 1010.27 1010.56 1010.80 1011.19 1011.42 1011.67 1011.92
1006.41 1006.70 1006.21 1005.71 1006.23 1006.55 1006.18 1005.20 1003.89 1003.13 1002.68 1002.17 1001.84 1001.44 1001.19 1001.49 1001.78 1002.79 1003.00 1004.00 1004.73 1005.49 1006.42 1007.32 1008.14 1008.66 1008.78 1009.14 1009.21 1009.20 1009.38 1009.34 1009.14 1009.03 1008.85 1008.83 1008.62 1008.66 1008.87 1009.02 1009.39 1009.67 1010.11 1010.45 1010.66 1010.82 1011.21 1011.60 1011.71
1005.67 1005.53 1005.60 1005.77 1006.46 1006.37 1006.03 1004.96 1003.69 1002.20 1001.85 1001.41 1000.96 1000.75 1000.64 1000.98 1002.07 1003.12 1003.78 1004.40 1005.22 1005.96 1006.47 1007.26 1007.92 1008.31 1008.45 1008.80 1008.93 1009.14 1009.35 1009.22 1009.15 1009.00 1008.92 1008.75 1008.56 1008.55 1008.66 1008.88 1009.14 1009.44 1009.70 1010.13 1010.48 1010.71 1010.96 1011.32 1011.79
1004.41 1004.69 1005.78 1006.42 1007.39 1007.39 1006.39 1005.49 1004.33 1002.86 1002.01 1001.30 1000.35 1000.22 1000.33 1001.25 1002.39 1003.26 1004.09 1004.92 1005.43 1006.14 1006.57 1007.13 1007.77 1008.09 1008.36 1008.54 1008.85 1009.13 1009.37 1009.34 1009.20 1009.16 1009.03 1008.75 1008.60 1008.57 1008.56 1008.81 1008.95 1009.17 1009.50 1009.96 1010.27 1010.52 1010.76 1010.99 1011.47
1003.08 1004.36 1005.54 1006.61 1007.37 1007.62 1007.15 1007.06 1003.68 1003.27 1002.07 1000.89 1000.12 1000.08 1000.59 1001.64 1002.76 1003.45 1004.19 1004.84 1005.62 1006.22 1006.68 1007.13 1007.68 1008.06 1008.21 1008.41 1008.68 1009.03 1009.10 1009.15 1009.10 1009.04 1008.96 1008.64 1008.56 1008.56 1008.55 1008.73 1008.90 1009.10 1009.37 1009.76 1010.06 1010.50 1010.86 1011.04 1011.39
1003.86 1004.70 1006.15 1006.87 1007.66 1007.54 1006.85 1006.80 1003.53 1002.91 1001.42 1000.62 999.93 1000.22 1001.10 1002.13 1003.03 1003.68 1004.15 1005.04 1005.77 1006.37 1006.83 1007.29 1007.76 1008.02 1008.07 1008.38 1008.65 1008.80 1008.86 1009.01 1009.01 1009.02 1008.86 1008.72 1008.59 1008.52 1008.47 1008.58 1008.84 1009.02 1009.25 1009.58 1009.99 1010.42 1010.84 1011.02 1011.08
1003.59 1005.04 1007.01 1007.55 1007.79 1006.99 1005.77 1005.88 1002.50 1001.25 1000.43 1000.04 999.79 1000.28 1001.55 1002.44 1003.52 1003.82 1004.41 1005.18 1005.86 1006.35 1006.96 1007.35 1007.72 1007.93 1008.13 1008.47 1008.66 1008.64 1008.76 1008.82 1008.88 1008.92 1008.77 1008.72 1008.59 1008.56 1008.45 1008.50 1008.74 1008.94 1009.17 1009.52 1009.90 1010.39 1010.71 1010.89 1010.98
1002.64 1003.98 1005.09 1006.68 1006.97 1006.06 1004.40 1003.55 1001.45 999.74 999.05 999.10 999.69 1000.23 1001.63 1002.59 1003.80 1003.91 1004.61 1005.02 1005.55 1006.24 1006.82 1007.17 1007.57 1007.89 1008.22 1008.46 1008.53 1008.54 1008.63 1008.72 1008.76 1008.83 1008.69 1008.68 1008.55 1008.47 1008.40 1008.45 1008.70 1008.83 1009.16 1009.53 1009.94 1010.36 1010.70 1010.94 1011.13
1002.01 1002.64 1003.93 1005.17 1005.65 1005.60 1003.40 1001.89 1000.28 999.22 998.98 999.11 999.72 1000.64 1001.71 1002.59 1003.68 1003.97 1004.72 1005.00 1005.51 1006.20 1006.61 1006.92 1007.48 1007.86 1008.16 1008.32 1008.46 1008.55 1008.60 1008.57 1008.80 1008.77 1008.66 1008.59 1008.49 1008.43 1008.37 1008.44 1008.64 1008.84 1009.20 1009.53 1009.99 1010.38 1010.78 1011.05 1011.34
999.75 1001.60 1003.69 1004.45 1005.17 1004.86 1002.90 1001.64 999.89 998.91 998.50 998.97 999.86 1000.76 1001.87 1002.75 1003.75 1004.06 1004.71 1005.07 1005.50 1006.03 1006.39 1006.89 1007.28 1007.67 1007.98 1008.16 1008.33 1008.51 1008.43 1008.61 1008.77 1008.71 1008.72 1008.70 1008.62 1008.55 1008.47 1008.54 1008.76 1009.06 1009.40 1009.68 1010.13 1010.55 1010.94 1011.19 1011.54
999.72 1000.44 1001.71 1003.03 1003.86 1003.63 1002.97 1000.73 998.60 998.03 997.86 998.51 999.17 1000.23 1001.57 1002.47 1003.20 1003.90 1004.55 1005.02 1005.42 1006.02 1006.46 1006.91 1007.39 1007.69 1007.90 1008.12 1008.31 1008.45 1008.39 1008.59 1008.76 1008.74 1008.74 1008.75 1008.70 1008.74 1008.78 1008.70 1008.91 1009.28 1009.67 1010.05 1010.44 1010.86 1011.16 1011.46 1011.82
998.46 999.12 999.99 1001.13 1002.13 1002.60 1001.98 999.95 997.75 997.46 997.42 998.02 998.84 999.93 1001.29 1002.34 1003.13 1003.77 1004.35 1004.85 1005.52 1006.02 1006.58 1006.98 1007.30 1007.64 1007.73 1007.99 1008.27 1008.44 1008.42 1008.68 1008.86 1008.75 1008.73 1008.75 1008.74 1008.74 1008.78 1008.82 1009.00 1009.41 1009.82 1010.34 1010.68 1010.93 1011.29 1011.58 1011.99
Wind_Speed
7 6 3 2 4 4 4 6 2 6 3 3 4 6 8 6 8 8 4 11 9 16 13 18 21 20 19 17 16 16 14 14 13 13 13 12 12 12 11 9 8 7 6 7 7 6 6 7 5
6 3 1 3 4 1 6 4 5 7 5 1 3 4 3 4 3 3 3 8 10 14 13 16 22 21 20 18 16 15 15 15 15 14 14 13 13 14 13 12 11 10 9 9 8 8 7 8 7
7 1 3 4 4 5 5 5 5 8 8 6 2 3 6 5 3 5 5 12 9 12 12 15 23 21 20 19 18 17 16 16 16 15 15 16 15 14 14 13 13 13 12 11 11 10 10 9 9
3 4 3 2 6 7 6 7 2 7 6 4 5 5 4 5 6 7 8 11 11 10 11 16 21 20 20 18 18 16 16 16 15 16 16 16 16 15 16 15 15 14 14 14 13 12 12 11 11
4 3 1 2 6 6 7 8 3 6 5 4 4 5 5 3 3 7 10 11 12 8 8 12 20 20 19 19 17 16 16 16 15 16 16 15 15 15 14 17 16 16 16 15 15 14 13 13 13
4 3 1 4 5 5 6 8 2 3 4 2 1 2 6 2 6 8 9 10 8 12 9 9 18 19 18 17 16 16 15 15 14 14 14 12 13 13 14 16 16 16 16 17 17 16 15 13 13
6 4 4 3 4 6 6 4 4 1 3 5 3 5 6 6 7 7 7 7 7 7 8 7 9 14 18 16 16 15 14 14 13 13 12 11 10 10 11 13 14 15 16 16 17 16 15 13 14
5 4 3 5 3 8 4 1 2 2 6 1 2 5 8 5 8 6 5 5 5 6 6 7 6 7 7 7 15 14 14 14 12 11 12 11 10 10 10 10 11 13 16 16 17 16 15 15 12
4 3 5 7 7 8 3 2 0 1 4 3 6 5 5 2 8 7 4 2 3 4 6 7 7 6 6 6 6 11 15 13 13 12 13 9 4 4 5 7 10 12 13 13 14 16 16 15 16
5 6 11 9 7 7 5 2 3 4 8 11 6 6 2 6 8 11 9 11 8 8 7 8 7 7 6 4 5 4 4 3 4 5 6 4 5 4 5 8 11 13 13 14 14 13 14 16 4
7 10 15 8 9 3 6 9 3 3 9 8 8 15 3 7 9 11 12 13 18 12 6 8 7 7 8 5 4 2 2 3 3 5 5 5 3 3 3 3 3 3 7 3 4 4 2 4 4
4 11 18 12 5 3 8 5 13 10 19 15 14 9 5 10 15 15 15 16 9 9 10 8 8 7 7 4 4 4 3 3 3 4 6 4 3 4 4 3 4 4 3 3 3 2 3 4 5
8 12 8 8 10 8 13 13 15 16 22 14 10 8 11 13 19 16 17 9 6 9 8 9 8 7 6 6 3 3 4 4 4 4 4 4 4 5 4 4 4 4 3 3 3 3 3 3 5
6 9 9 4 10 13 16 20 4 13 17 13 11 12 11 14 20 15 8 11 11 8 9 9 9 7 7 5 5 4 4 5 4 4 5 5 4 5 4 5 6 4 4 3 3 4 3 3 4
4 4 8 10 11 8 14 20 10 18 13 12 16 13 11 15 9 17 21 18 9 7 9 11 9 7 7 6 5 4 4 4 4 4 5 5 6 6 6 5 5 4 3 4 3 3 2 2 3
1 2 4 5 6 7 9 17 10 19 10 16 15 12 10 13 17 21 12 8 10 12 13 9 8 8 7 5 4 4 4 4 4 4 3 5 6 7 5 4 5 3 3 3 3 2 2 3 4
2 9 7 8 9 5 9 16 18 7 7 13 16 12 10 14 11 16 9 9 11 12 13 10 8 8 7 5 4 5 5 3 4 3 3 4 5 5 5 4 3 4 3 3 3 2 3 3 4
7 6 6 13 1 4 12 16 19 17 10 16 13 14 12 12 20 5 10 11 14 13 12 10 6 7 6 4 3 3 1 2 3 3 3 3 3 4 4 3 3 3 3 3 4 3 3 3 4
14 9 11 14 2 3 8 9 18 12 7 11 12 11 13 12 4 5 8 13 15 12 12 11 9 7 4 2 3 1 2 2 3 2 3 4 3 4 5 3 3 4 4 4 5 3 4 2 3
9 14 22 15 6 4 11 13 17 15 13 11 13 14 12 4 3 3 9 10 13 15 12 9 8 7 5 2 2 2 1 3 2 2 3 4 4 4 4 4 4 5 4 5 5 4 3 2 3
19 20 17 17 5 5 6 10 16 13 8 7 10 11 9 9 8 7 8 10 12 13 12 10 8 8 5 4 2 1 1 1 2 2 2 2 3 3 4 4 4 5 4 5 4 4 4 3 1
23 17 14 14 4 6 4 7 13 12 12 7 10 8 8 0 5 8 10 10 12 10 7 8 8 7 5 5 2 2 2 1 1 1 2 3 2 3 3 3 4 5 4 5 4 3 2 3 4
12 10 12 9 5 1 3 4 7 5 10 11 11 9 6 4 8 11 12 13 9 9 8 7 7 6 5 4 3 2 2 1 1 1 4 2 2 2 2 3 4 5 4 5 6 4 3 2 3
5 6 4 2 3 4 11 7 6 6 9 8 7 4 4 6 9 10 11 11 9 6 7 7 7 5 5 4 3 4 4 2 1 2 2 3 2 1 1 3 4 4 4 5 4 4 4 4 4
10 10 1 3 1 6 7 9 15 10 10 12 12 7 5 9 9 14 16 13 10 9 8 6 7 5 5 5 4 4 4 3 1 2 2 3 2 1 0 3 4 3 4 5 5 5 4 4 3
17 13 9 8 5 5 7 9 9 19 22 9 6 3 8 9 7 13 12 12 12 10 9 7 7 6 6 5 4 3 3 2 0 2 1 1 1 1 1 3 4 5 5 5 4 3 3 3 3
7 16 10 4 2 1 5 5 7 7 8 7 7 6 9 9 9 11 10 10 10 10 9 9 7 5 6 5 4 3 2 2 1 2 1 0 1 1 2 4 4 5 6 6 5 4 4 4 3
15 12 7 4 7 5 5 3 6 7 10 6 6 9 7 7 9 10 10 10 8 8 7 7 6 7 6 5 4 3 3 2 1 2 3 3 2 2 3 3 4 4 5 5 5 4 5 6 3
5 10 4 6 6 6 1 7 8 9 8 9 9 8 10 12 12 12 10 8 8 7 7 7 6 6 6 5 3 3 2 2 3 3 2 3 3 4 3 4 5 6 5 6 7 7 7 8 7
20 10 9 11 7 3 3 8 4 7 7 8 8 8 7 8 10 11 11 9 8 8 7 7 6 6 6 5 4 3 4 3 3 3 3 3 3 3 4 5 7 7 6 7 8 7 5 7 7
Wind_Direction
165 152 151 84 62 70 256 258 259 295 335 250 110 154 192 168 168 210 315 179 137 157 163 173 179 187 190 190 191 192 192 196 201 207 212 218 217 217 218 219 229 242 254 258 266 265 268 266 266
144 154 49 90 101 105 258 246 229 230 238 268 190 157 188 243 199 260 118 194 160 159 165 171 183 189 191 192 193 193 197 202 210 216 219 224 230 228 233 231 229 237 243 250 257 266 261 260 260
167 208 91 114 150 199 226 222 250 292 254 207 215 279 155 222 214 197 222 158 146 163 167 177 186 188 191 192 194 196 200 206 213 221 229 229 231 236 233 239 245 240 244 246 243 245 257 261 256
167 23 46 109 227 252 229 265 183 316 332 214 162 257 265 217 162 191 150 153 154 164 173 181 185 188 191 194 197 200 204 212 218 225 235 238 235 240 233 238 248 250 253 252 255 257 247 254 257
41 57 96 239 247 257 243 255 265 281 281 237 155 239 255 249 146 152 150 157 164 161 167 176 183 188 193 197 202 204 210 216 220 228 238 241 239 242 239 239 245 250 256 257 259 258 255 251 250
53 95 84 237 239 247 262 250 209 213 274 305 207 126 257 306 165 187 158 166 162 165 164 172 187 189 194 199 204 206 214 219 225 234 241 238 241 248 250 250 246 250 251 254 258 259 256 255 246
130 108 234 257 245 272 240 191 204 355 299 286 176 173 256 264 218 169 165 142 156 149 157 172 188 193 196 200 205 208 217 221 222 229 236 234 239 252 256 257 258 259 260 261 260 264 268 262 250
123 116 250 235 217 271 237 234 104 52 308 50 150 244 259 252 149 116 87 140 155 157 167 177 170 184 189 192 204 207 215 215 219 224 230 229 233 240 252 261 270 268 266 262 256 257 258 258 253
119 99 248 237 173 244 230 349 27 186 235 250 217 237 251 120 113 112 129 191 178 182 183 171 173 179 177 188 211 212 220 222 223 223 225 222 206 228 247 252 257 265 263 259 262 261 261 260 251
159 167 227 200 190 234 182 174 344 340 318 286 257 283 322 150 171 171 181 203 204 202 195 182 169 175 171 183 198 214 231 230 219 209 213 206 199 209 220 239 250 260 257 256 265 266 271 257 215
194 209 232 275 238 347 293 287 206 267 280 248 282 293 217 182 206 190 204 204 208 200 186 179 173 172 167 182 192 198 221 230 228 223 212 206 196 219 236 227 256 279 270 287 290 293 278 268 215
187 235 237 249 253 255 256 323 298 259 258 275 278 255 192 203 210 201 209 212 192 189 187 166 174 167 174 173 183 187 205 228 231 224 213 186 195 208 224 218 226 234 236 246 251 256 256 252 217
226 238 240 264 288 255 273 261 254 285 283 281 269 259 225 208 216 218 214 219 180 198 165 170 159 167 174 182 173 198 221 228 226 213 206 190 201 214 211 217 215 222 211 216 231 237 236 226 213
222 225 248 261 273 272 277 269 258 257 276 288 289 257 237 212 218 220 206 213 200 166 162 153 164 175 167 177 183 212 218 234 228 220 223 211 209 214 214 220 219 216 204 216 226 229 223 221 196
230 265 268 229 235 247 270 277 248 266 271 262 269 260 241 226 216 223 222 214 162 158 151 162 163 166 174 181 209 221 224 219 226 226 226 218 209 216 216 221 227 213 196 209 220 227 198 210 203
303 160 261 190 222 241 186 278 263 266 256 261 261 261 244 242 217 228 228 176 147 142 159 154 159 166 174 196 214 228 233 225 232 228 224 222 218 216 216 216 219 187 190 198 198 181 184 203 194
327 258 256 298 209 211 184 279 266 269 251 271 271 270 256 258 238 231 192 150 148 150 149 152 158 170 176 203 215 232 236 228 232 225 224 234 230 222 206 207 211 174 187 198 176 170 161 178 187
195 245 228 246 321 171 270 266 272 271 249 256 268 267 265 251 246 222 152 153 147 150 149 144 151 161 172 188 214 234 262 252 242 241 248 258 242 230 203 208 205 178 170 180 173 158 176 168 186
224 224 238 253 197 230 250 271 274 278 252 260 260 265 255 240 235 184 155 153 147 146 136 141 149 172 157 167 202 213 236 254 258 244 261 270 262 230 199 194 180 179 174 176 167 145 165 146 143
198 227 245 276 229 225 271 272 283 285 265 251 265 274 264 221 204 135 129 143 155 145 146 144 158 170 178 166 195 158 207 250 254 255 276 280 280 221 198 183 191 174 155 160 165 149 135 118 159
216 216 232 245 359 257 300 289 286 284 262 280 260 247 265 227 183 139 136 138 142 144 150 157 164 173 166 173 110 56 321 310 341 354 310 307 313 208 190 194 189 166 158 162 158 155 151 127 107
219 208 240 251 160 244 112 288 292 302 287 246 279 293 285 212 121 139 134 139 144 154 140 147 158 169 164 147 127 152 191 245 245 263 279 305 295 215 210 206 177 162 152 154 168 176 160 127 142
231 183 207 225 210 317 247 274 270 309 290 284 284 288 278 139 145 147 145 145 143 144 155 151 160 158 144 144 148 155 188 220 278 313 290 322 305 242 190 183 174 162 157 159 171 154 161 127 133
176 92 69 71 127 252 236 196 252 216 226 268 271 292 109 126 131 132 134 139 136 135 139 148 158 150 144 143 149 171 158 144 32 308 306 345 315 326 272 179 175 168 157 160 165 145 155 172 149
162 122 296 317 258 221 202 194 245 261 238 231 253 249 169 138 151 149 152 152 147 151 155 160 150 150 157 146 174 161 154 148 11 298 296 17 21 17 310 166 159 156 155 150 147 151 164 185 161
181 171 161 188 202 243 191 211 247 218 233 230 240 215 149 145 166 160 159 153 155 158 162 156 153 159 152 168 183 150 169 108 307 300 358 48 52 40 251 158 155 149 136 140 145 136 137 138 127
190 210 161 128 229 128 228 266 299 222 218 230 222 169 175 151 161 152 159 158 153 161 169 162 163 153 164 186 150 168 140 111 2 12 50 38 25 92 151 160 140 132 131 146 149 138 126 133 122
185 138 168 204 193 228 287 251 221 200 215 195 202 199 155 131 149 153 164 162 160 169 158 159 169 165 178 173 168 155 172 121 154 78 60 41 21 72 102 124 114 113 121 131 122 111 122 117 108
149 176 139 154 151 168 180 260 215 200 198 210 219 183 159 165 163 166 165 168 161 154 152 174 167 161 176 174 163 141 132 98 105 97 68 50 43 54 76 105 114 117 120 117 114 123 121 119 115
199 180 164 191 193 173 166 263 250 226 214 202 199 159 155 149 160 163 166 153 156 163 158 184 175 176 187 176 148 146 117 101 101 118 85 52 68 87 113 121 121 124 123 118 126 127 121 132 133